This is the latest recevied weather packets stored in our database for station/object AJ5AG. If no packets are shown the sender has not sent any weather packets the latest 10 day(s).
| Time | Temp. | Humidity | Pressure | Rain* | Wind** | Luminosity | Snow |
|---|---|---|---|---|---|---|---|
| 1777228034 | 28.33° C | 75% | 1012.8 hPa | 0 mm | - | 238 W/m² | - |
| 1777227728 | 28.33° C | 75% | 1012.7 hPa | 0 mm | - | 177 W/m² | - |
| 1777227424 | 28.33° C | 77% | 1012.8 hPa | 0 mm | - | 261 W/m² | - |
| 1777227120 | 27.78° C | 76% | 1013.1 hPa | 0 mm | - | 622 W/m² | - |
| 1777226817 | 27.78° C | 76% | 1013 hPa | 0 mm | - | 324 W/m² | - |
| 1777226516 | 28.33° C | 76% | 1012.9 hPa | 0 mm | - | 681 W/m² | - |
| 1777226212 | 27.78° C | 80% | 1013 hPa | 0 mm | - | 761 W/m² | - |
| 1777225908 | 26.67° C | 82% | 1013 hPa | 0 mm | - | 506 W/m² | - |
| 1777225604 | 26.67° C | 83% | 1013.1 hPa | 0 mm | - | 320 W/m² | - |
| 1777225301 | 26.67° C | 83% | 1013 hPa | 0 mm | - | 200 W/m² | - |
| 1777224998 | 26.67° C | 83% | 1013.2 hPa | 0 mm | - | 90 W/m² | - |
| 1777224696 | 26.67° C | 83% | 1013.3 hPa | 0 mm | - | 150 W/m² | - |
| 1777224396 | 26.67° C | 82% | 1013.3 hPa | 0 mm | - | 214 W/m² | - |
| 1777224092 | 26.67° C | 82% | 1013.5 hPa | 0 mm | - | 199 W/m² | - |
| 1777223789 | 26.67° C | 82% | 1013.6 hPa | 0 mm | - | 257 W/m² | - |
| 1777223485 | 26.67° C | 83% | 1013.6 hPa | 0 mm | - | 307 W/m² | - |
| 1777223183 | 26.67° C | 82% | 1013.6 hPa | 0 mm | - | 196 W/m² | - |
| 1777222880 | 26.67° C | 81% | 1013.7 hPa | 0 mm | - | 145 W/m² | - |
| 1777222577 | 26.67° C | 81% | 1013.5 hPa | 0 mm | - | 173 W/m² | - |
| 1777222275 | 26.67° C | 81% | 1013.5 hPa | 0 mm | - | 192 W/m² | - |
| 1777221973 | 26.67° C | 82% | 1013.6 hPa | 0 mm | - | 157 W/m² | - |
| 1777221668 | 26.67° C | 82% | 1013.5 hPa | 0 mm | - | 178 W/m² | - |
| 1777221365 | 26.11° C | 84% | 1013.7 hPa | 0 mm | - | 179 W/m² | - |
| 1777221063 | 26.11° C | 84% | 1013.7 hPa | 0 mm | - | 170 W/m² | - |
| 1777220762 | 26.11° C | 84% | 1013.8 hPa | 0 mm | - | 139 W/m² | - |
* Rain latest hour (hover to see other rain measurements)
** Current wind speed in m/s (hover to see current wind gust speed)